Location: Sperry Observatory
(40.6664°N, 74.3236°W)
Time: 07:21:50
(UTC-04:00)

Amateur Radio Satellites - All Passes

Search period start: 22 July 2014 06:51
Search period end: 23 July 2014 06:51
Location: Sperry Observatory, 40.6664°N, 74.3236°W

Satellite Date Start Highest point End Downlink Frequencies (MHz)
Time Altitude Azimuth
MaSat-1 22 Jul 06:58:17 07:00:37 13° 44° (NE) 07:02:57 437.345 MHz
Hamsat 22 Jul 07:19:03 07:23:17 63° 285° (WNW) 07:27:32 145.90 MHz
KITSAT 1 22 Jul 07:24:23 07:32:05 50° 112° (ESE) 07:39:48 435.175 FM
ISS 22 Jul 07:51:28 07:54:23 26° 24° (NNE) 07:57:16 145.800 FM
Lituanica SAT-1 22 Jul 07:55:18 07:57:26 38° 221° (SW) 07:59:34 437.275 MHz beacon
AO-7 22 Jul 07:59:48 08:04:30 17° 312° (NW) 08:09:11 29.400 - 29.500 MHz
STRAND 1 22 Jul 08:01:32 08:05:28 22° 266° (W) 08:09:25 ?
JAS-2 22 Jul 08:11:06 08:17:05 43° 293° (WNW) 08:22:25 435.800 - 435.900 CW/SSB, 435.910 FM
SO-67 22 Jul 08:13:49 08:17:19 86° 281° (W) 08:20:47 435.3500 MHz FM
Saudisat 1A 22 Jul 08:22:55 08:23:54 11° 107° (ESE) 08:24:53 436.775 MHz
MaSat-1 22 Jul 08:33:36 08:38:57 72° 63° (ENE) 08:44:07 437.345 MHz
PANSAT 22 Jul 08:48:13 08:48:54 10° 169° (SSE) 08:49:34 not established
HO-68 22 Jul 09:18:22 09:24:41 33° 96° (E) 09:30:57 435.675 MHz FM
KITSAT 1 22 Jul 09:20:05 09:27:37 41° 312° (NW) 09:35:12 435.175 FM
ISS 22 Jul 09:28:00 09:31:15 47° 222° (SW) 09:34:29 145.800 FM
Oscar 11 22 Jul 09:53:52 09:57:06 20° 94° (E) 10:00:20 145.825 FM, Beacon 2401.500 USB
Saudisat 1A 22 Jul 09:58:25 10:02:50 77° 303° (WNW) 10:07:17 436.775 MHz
MaSat-1 22 Jul 10:12:44 10:15:41 15° 260° (W) 10:18:35 437.345 MHz
PCSat 22 Jul 10:14:24 10:17:54 17° 43° (NE) 10:21:22 145.825 MHz
PANSAT 22 Jul 10:26:26 10:28:19 13° 182° (S) 10:30:12 not established
HO-68 22 Jul 11:05:45 11:12:31 48° 294° (WNW) 11:19:16 435.675 MHz FM
KITSAT 1 22 Jul 11:21:49 11:25:39 14° 338° (NNW) 11:29:29 435.175 FM
Sapphire 22 Jul 11:22:26 11:27:42 47° 56° (NE) 11:32:54 437.095 MHz 1200 baud AX-25 AFSK
Oscar 11 22 Jul 11:29:27 11:33:22 34° 289° (WNW) 11:37:16 145.825 FM, Beacon 2401.500 USB
FUNcube-1 22 Jul 11:29:41 11:33:51 87° 102° (ESE) 11:38:01 145.950 - 145.970 MHz USB
Saudisat 1A 22 Jul 11:41:25 11:43:11 12° 322° (NW) 11:44:57 436.775 MHz
PCSat 22 Jul 11:56:35 12:02:02 86° 242° (WSW) 12:07:27 145.825 MHz
Oscar 19 22 Jul 12:50:34 12:54:51 28° 67° (ENE) 12:59:09 437.125 CW, 437.150 USB
RS-15 22 Jul 12:53:13 12:59:25 17° 98° (E) 13:05:30 29.354 - 29.394 USB, Beacon 29.352 USB
Sapphire 22 Jul 13:06:32 13:10:47 24° 253° (WSW) 13:15:02 437.095 MHz 1200 baud AX-25 AFSK
Oscar 16 22 Jul 13:16:50 13:21:46 51° 72° (ENE) 13:26:44 437.025 USB, Beacon 2401.1428
ITAMSAT 1 22 Jul 13:23:04 13:27:25 27° 66° (ENE) 13:31:46 435.822 SSB
KITSAT 1 22 Jul 13:23:56 13:25:35 11° 10° (N) 13:27:14 435.175 FM
Gurwin Techsat 1B 22 Jul 13:24:21 13:26:06 12° 58° (ENE) 13:27:51 435.225 FM
AO-27 22 Jul 13:39:43 13:44:33 39° 69° (ENE) 13:49:23 436.795 MHz FM
PCSat 22 Jul 13:43:41 13:44:34 10° 259° (W) 13:45:26 145.825 MHz
Uribyol 2 22 Jul 13:43:45 13:48:40 44° 70° (ENE) 13:53:36 436.500 FM
JAS-1B 22 Jul 13:46:01 13:53:41 38° 61° (ENE) 14:02:14 435.800 - 435.900 CW/SSB
AO-Echo 22 Jul 14:03:30 14:08:41 65° 73° (ENE) 14:13:58 ?
Oscar 19 22 Jul 14:29:26 14:34:03 34° 263° (W) 14:38:43 437.125 CW, 437.150 USB
TMSAT-1 22 Jul 14:40:44 14:45:41 42° 70° (ENE) 14:50:39 436.925 FM
SO-50 22 Jul 14:46:21 14:50:49 83° 303° (WNW) 14:55:23 436.795 FM
Oscar 16 22 Jul 14:57:55 15:01:25 18° 268° (W) 15:04:55 437.025 USB, Beacon 2401.1428
RS-15 22 Jul 14:58:44 15:09:52 78° 118° (ESE) 15:20:47 29.354 - 29.394 USB, Beacon 29.352 USB
Gurwin Techsat 1B 22 Jul 14:59:55 15:05:14 85° 75° (ENE) 15:10:35 435.225 FM
ITAMSAT 1 22 Jul 15:01:56 15:06:44 37° 262° (W) 15:11:34 435.822 SSB
AO-7 22 Jul 15:11:49 15:19:07 35° 59° (ENE) 15:26:26 29.400 - 29.500 MHz
KITSAT 1 22 Jul 15:17:56 15:24:31 26° 39° (NE) 15:31:03 435.175 FM
AO-27 22 Jul 15:19:53 15:24:09 25° 265° (W) 15:28:26 436.795 MHz FM
Uribyol 2 22 Jul 15:24:19 15:28:19 22° 266° (W) 15:32:20 436.500 FM
JAS-1B 22 Jul 15:35:35 15:43:41 56° 262° (W) 15:53:05 435.800 - 435.900 CW/SSB
AO-Echo 22 Jul 15:44:48 15:47:53 16° 270° (W) 15:51:01 ?
UOSAT-12 22 Jul 15:48:00 15:51:59 30° 113° (ESE) 15:56:04 437.025 FM, 437.400 FM
Uosat F 22 Jul 15:54:34 15:59:25 49° 71° (ENE) 16:04:16 435.120 FM
OPAL 22 Jul 16:21:04 16:25:28 29° 98° (E) 16:29:52 ?
TMSAT-1 22 Jul 16:21:29 16:25:44 24° 266° (W) 16:30:00 436.925 FM
SO-50 22 Jul 16:29:58 16:32:08 13° 322° (NW) 16:34:18 436.795 FM
JAS-2 22 Jul 16:38:35 16:43:18 18° 57° (ENE) 16:47:53 435.800 - 435.900 CW/SSB, 435.910 FM
Gurwin Techsat 1B 22 Jul 16:44:22 16:45:51 11° 272° (W) 16:47:19 435.225 FM
Saudisat 1A 22 Jul 16:47:54 16:49:35 12° 37° (NE) 16:51:17 436.775 MHz
AO-7 22 Jul 17:03:24 17:11:32 55° 258° (WSW) 17:19:44 29.400 - 29.500 MHz
KITSAT 1 22 Jul 17:12:47 17:20:55 85° 242° (WSW) 17:28:58 435.175 FM
RS-15 22 Jul 17:13:32 17:23:20 35° 323° (NW) 17:33:07 29.354 - 29.394 USB, Beacon 29.352 USB
UOSAT-12 22 Jul 17:27:55 17:32:05 32° 311° (NW) 17:36:19 437.025 FM, 437.400 FM
Uosat F 22 Jul 17:34:53 17:38:26 19° 267° (W) 17:42:01 435.120 FM
OPAL 22 Jul 17:59:51 18:04:19 33° 294° (WNW) 18:08:48 ?
Hamsat 22 Jul 18:11:55 18:16:05 87° 79° (ENE) 18:20:18 145.90 MHz
JAS-2 22 Jul 18:19:23 18:27:14 80° 74° (ENE) 18:34:52 435.800 - 435.900 CW/SSB, 435.910 FM
Saudisat 1A 22 Jul 18:25:31 18:29:57 76° 57° (ENE) 18:34:19 436.775 MHz
STRAND 1 22 Jul 18:33:38 18:36:29 15° 91° (E) 18:39:18 ?
SO-67 22 Jul 18:46:59 18:49:58 28° 72° (ENE) 18:52:59 435.3500 MHz FM
KITSAT 1 22 Jul 19:10:34 19:15:06 16° 260° (W) 19:19:38 435.175 FM
RS-15 22 Jul 19:33:05 19:40:21 19° 358° (N) 19:47:40 29.354 - 29.394 USB, Beacon 29.352 USB
Oscar 10/S400 22 Jul 19:39:24 19:55:10 29° 142° (SE) 20:19:27 145.825 - 145.975 CW/USB, Beacon 145.810 USB
HO-68 22 Jul 19:47:29 19:53:05 26° 59° (ENE) 19:58:41 435.675 MHz FM
JAS-2 22 Jul 20:07:11 20:12:49 21° 270° (W) 20:18:23 435.800 - 435.900 CW/SSB, 435.910 FM
Saudisat 1A 22 Jul 20:07:57 20:08:53 11° 253° (WSW) 20:09:48 436.775 MHz
STRAND 1 22 Jul 20:11:02 20:16:06 63° 287° (WNW) 20:21:07 ?
SO-67 22 Jul 20:20:58 20:23:05 15° 267° (W) 20:25:14 435.3500 MHz FM
Oscar 11 22 Jul 20:49:26 20:52:09 17° 65° (ENE) 20:54:52 145.825 FM, Beacon 2401.500 USB
HO-68 22 Jul 21:33:06 21:40:13 66° 257° (WSW) 21:47:21 435.675 MHz FM
SO-50 22 Jul 21:39:12 21:41:37 14° 38° (NE) 21:44:02 436.795 FM
RS-15 22 Jul 21:48:17 21:57:43 31° 33° (NNE) 22:07:19 29.354 - 29.394 USB, Beacon 29.352 USB
Oscar 11 22 Jul 22:23:52 22:27:59 44° 261° (W) 22:32:07 145.825 FM, Beacon 2401.500 USB
FUNcube-1 22 Jul 22:25:33 22:29:56 67° 75° (ENE) 22:34:13 145.950 - 145.970 MHz USB
MaSat-1 22 Jul 22:25:48 22:29:06 29° 105° (ESE) 22:32:54 437.345 MHz
SO-50 22 Jul 23:18:09 23:22:56 80° 57° (ENE) 23:27:45 436.795 FM
Lituanica SAT-1 22 Jul 23:59:15 00:00:30 14° 134° (SE) 00:01:46 437.275 MHz beacon
RS-15 23 Jul 00:00:35 00:11:41 89° 59° (ENE) 00:23:12 29.354 - 29.394 USB, Beacon 29.352 USB
MaSat-1 23 Jul 00:03:05 00:06:27 25° 308° (NW) 00:10:16 437.345 MHz
FUNcube-1 23 Jul 00:05:53 00:06:43 10° 270° (W) 00:07:33 145.950 - 145.970 MHz USB
UOSAT-12 23 Jul 00:17:36 00:21:40 28° 47° (NE) 00:25:41 437.025 FM, 437.400 FM
PCSat 23 Jul 00:58:30 01:00:32 12° 102° (ESE) 01:02:34 145.825 MHz
SO-50 23 Jul 01:01:09 01:02:52 12° 253° (WSW) 01:04:34 436.795 FM
Oscar 16 23 Jul 01:29:47 01:33:21 19° 92° (E) 01:36:54 437.025 USB, Beacon 2401.1428
Lituanica SAT-1 23 Jul 01:31:20 01:33:17 28° 330° (NNW) 01:35:15 437.275 MHz beacon
JAS-1B 23 Jul 01:38:00 01:38:52 10° 78° (ENE) 01:39:43 435.800 - 435.900 CW/SSB
AO-27 23 Jul 01:54:39 01:57:16 14° 90° (E) 01:59:52 436.795 MHz FM
UOSAT-12 23 Jul 01:57:32 02:01:54 38° 245° (WSW) 02:06:13 437.025 FM, 437.400 FM
Uribyol 2 23 Jul 01:58:06 02:01:10 16° 91° (E) 02:04:13 436.500 FM
Sapphire 23 Jul 02:03:57 02:09:04 46° 112° (ESE) 02:14:13 437.095 MHz 1200 baud AX-25 AFSK
ISS 23 Jul 02:09:57 02:13:16 67° 141° (SE) 02:16:36 145.800 FM
AO-Echo 23 Jul 02:12:16 02:16:10 21° 93° (E) 02:19:57 ?
RS-15 23 Jul 02:14:47 02:22:36 23° 259° (W) 02:30:39 29.354 - 29.394 USB, Beacon 29.352 USB
PCSat 23 Jul 02:37:44 02:43:09 85° 299° (WNW) 02:48:36 145.825 MHz
Oscar 19 23 Jul 02:40:38 02:45:49 85° 104° (ESE) 02:51:00 437.125 CW, 437.150 USB
TMSAT-1 23 Jul 02:57:58 03:01:18 17° 91° (E) 03:04:37 436.925 FM
Oscar 16 23 Jul 03:07:59 03:12:58 51° 288° (WNW) 03:17:57 437.025 USB, Beacon 2401.1428
ITAMSAT 1 23 Jul 03:14:38 03:19:51 81° 103° (ESE) 03:25:01 435.822 SSB
Gurwin Techsat 1B 23 Jul 03:16:48 03:21:39 35° 97° (E) 03:26:28 435.225 FM
JAS-1B 23 Jul 03:22:01 03:31:34 59° 99° (E) 03:39:53 435.800 - 435.900 CW/SSB
AO-27 23 Jul 03:32:06 03:37:17 69° 287° (WNW) 03:42:24 436.795 MHz FM
OPAL 23 Jul 03:35:43 03:40:30 51° 69° (ENE) 03:45:18 ?
Uribyol 2 23 Jul 03:35:57 03:41:03 61° 287° (WNW) 03:46:06 436.500 FM
ISS 23 Jul 03:47:33 03:50:16 22° 339° (NNW) 03:52:59 145.800 FM
Sapphire 23 Jul 03:48:07 03:52:41 27° 311° (NW) 03:57:17 437.095 MHz 1200 baud AX-25 AFSK
AO-Echo 23 Jul 03:50:15 03:55:09 44° 290° (WNW) 03:59:52 ?
Uosat F 23 Jul 04:04:05 04:06:55 15° 91° (E) 04:09:45 435.120 FM
Oscar 19 23 Jul 04:22:18 04:24:26 13° 301° (WNW) 04:26:34 437.125 CW, 437.150 USB
PCSat 23 Jul 04:24:13 04:27:23 16° 319° (NW) 04:30:34 145.825 MHz
TMSAT-1 23 Jul 04:36:24 04:41:37 60° 287° (WNW) 04:46:47 436.925 FM
ITAMSAT 1 23 Jul 04:56:15 04:58:38 13° 301° (WNW) 05:01:01 435.822 SSB
Gurwin Techsat 1B 23 Jul 04:56:57 05:01:29 29° 293° (WNW) 05:06:00 435.225 FM
AO-7 23 Jul 05:05:06 05:13:15 54° 102° (ESE) 05:21:18 29.400 - 29.500 MHz
JAS-1B 23 Jul 05:12:55 05:21:29 37° 300° (WNW) 05:29:15 435.800 - 435.900 CW/SSB
OPAL 23 Jul 05:16:23 05:19:40 18° 265° (W) 05:22:58 ?
ISS 23 Jul 05:26:21 05:27:57 13° 359° (N) 05:29:34 145.800 FM
Uosat F 23 Jul 05:41:09 05:46:07 61° 287° (WNW) 05:51:02 435.120 FM
STRAND 1 23 Jul 05:48:58 05:52:54 23° 64° (ENE) 05:56:50 ?
KITSAT 1 23 Jul 05:50:57 05:54:03 13° 98° (E) 05:57:10 435.175 FM
Hamsat 23 Jul 05:59:07 06:01:47 16° 92° (E) 06:04:27 145.90 MHz
Lituanica SAT-1 23 Jul 06:12:38 06:14:21 19° 27° (NNE) 06:16:05 437.275 MHz beacon
MaSat-1 23 Jul 06:45:09 06:47:36 13° 45° (NE) 06:50:01 437.345 MHz
